Weather History for KCGI - May, 2013

Change the Weather History Date:

Tuesday, May 28, 2013

  Actual Average Record
Temperature  
Mean Temperature 79 °F 70 °F  
Max Temperature 89 °F 81 °F 96 °F (2012)
Min Temperature 69 °F 59 °F 42 °F (1961)
Degree Days  
Heating Degree Days 0 1  
Month to date heating degree days 93 66  
Since 1 July heating degree days 4359 4384  
Cooling Degree Days 14 6  
Month to date cooling degree days 110 102  
Year to date cooling degree days 135 133  
Growing Degree Days 29 (Base 50)    
Moisture  
Dew Point 63 °F    
Average Humidity 60    
Maximum Humidity 79    
Minimum Humidity 40    
Precipitation  
Precipitation 0.00 in 0.15 in 1.29 in (1976)
Month to date precipitation 2.25 5.03  
Year to date precipitation 15.07 20.67  
Sea Level Pressure  
Sea Level Pressure 29.93 in    
Wind  
Wind Speed 14 mph (South)    
Max Wind Speed 26 mph    
Max Gust Speed 38 mph    
Visibility 10 miles    
Events      
T = Trace of Precipitation, MM = Missing Value Source: NWS Daily Summary

Daily Weather History Graph

Daily Weather History Graph

Search for Another Location

Airport or City:

Trip Planner

Search our weather history database for the weather conditions in past years. The results will help you decide how hot, cold, wet, or windy it might be!

Date:

Astronomy

May. 28, 2013 Rise Set
Actual Time 5:41 AM CDT 8:10 PM CDT
Civil Twilight 5:10 AM CDT 8:40 PM CDT
Nautical Twilight 4:33 AM CDT 9:18 PM CDT
Astronomical Twilight 3:52 AM CDT 9:59 PM CDT
Moon 11:37 PM CDT (5/28) 9:27 AM CDT (5/28)
Length of Visible Light 15h 29m
Length of Day
14h 29m
Waning Gibbous, 82% of the Moon is Illuminated
May 28
Waning Gibbous
May 31
Last Quarter
Jun 8
New
Jun 16
First Quarter
Jun 23
Full

Hourly Weather History & Observations

Time (CDT) Temp. Heat Index Dew Point Humidity Pressure Visibility Wind Dir Wind Speed Gust Speed Precip Events Conditions
12:53 AM 75.0 °F - 60.1 °F 60% 29.94 in 10.0 mi South 9.2 mph - N/A   Clear
1:53 AM 75.0 °F - 60.1 °F 60% 29.92 in 10.0 mi South 15.0 mph - N/A   Clear
2:53 AM 72.0 °F - 60.1 °F 66% 29.91 in 10.0 mi South 8.1 mph - N/A   Clear
3:53 AM 70.0 °F - 60.1 °F 71% 29.90 in 10.0 mi South 10.4 mph - N/A   Clear
4:53 AM 70.0 °F - 61.0 °F 73% 29.92 in 10.0 mi South 9.2 mph - N/A   Clear
5:53 AM 71.1 °F - 63.0 °F 75% 29.94 in 10.0 mi South 9.2 mph - N/A   Clear
6:53 AM 73.0 °F - 64.9 °F 76% 29.96 in 10.0 mi South 13.8 mph - N/A   Clear
7:53 AM 73.0 °F - 66.0 °F 79% 29.99 in 10.0 mi SSW 13.8 mph 20.7 mph N/A   Partly Cloudy
8:53 AM 77.0 °F - 66.9 °F 71% 29.96 in 10.0 mi South 15.0 mph 27.6 mph N/A   Clear
9:53 AM 80.1 °F 82.1 °F 66.0 °F 62% 29.96 in 10.0 mi SSW 23.0 mph 34.5 mph N/A   Clear
10:53 AM 81.0 °F 82.5 °F 64.0 °F 56% 29.96 in 10.0 mi SSW 24.2 mph 31.1 mph N/A   Clear
11:53 AM 82.9 °F 84.6 °F 64.9 °F 54% 29.97 in 10.0 mi SSW 16.1 mph 26.5 mph N/A   Clear
12:53 PM 84.9 °F 86.6 °F 64.9 °F 51% 29.95 in 10.0 mi SSW 16.1 mph 24.2 mph N/A   Clear
1:53 PM 87.1 °F 87.8 °F 63.0 °F 44% 29.94 in 10.0 mi SSW 15.0 mph 24.2 mph N/A   Clear
2:53 PM 88.0 °F 88.7 °F 63.0 °F 43% 29.93 in 10.0 mi SSW 17.3 mph 27.6 mph N/A   Clear
3:53 PM 88.0 °F 88.4 °F 62.1 °F 42% 29.91 in 10.0 mi SSW 17.3 mph 33.4 mph N/A   Clear
4:53 PM 88.0 °F 87.6 °F 60.1 °F 39% 29.91 in 10.0 mi SSW 17.3 mph 27.6 mph N/A   Clear
5:53 PM 87.1 °F 87.8 °F 63.0 °F 44% 29.89 in 10.0 mi South 16.1 mph 27.6 mph N/A   Clear
6:53 PM 86.0 °F 85.7 °F 60.1 °F 41% 29.89 in 10.0 mi SSW 12.7 mph 23.0 mph N/A   Clear
7:53 PM 82.0 °F 83.8 °F 64.9 °F 56% 29.90 in 10.0 mi South 9.2 mph - N/A   Partly Cloudy
8:53 PM 80.1 °F 81.5 °F 63.0 °F 56% 29.90 in 10.0 mi South 11.5 mph 18.4 mph N/A   Clear
9:53 PM 78.1 °F - 61.0 °F 56% 29.91 in 10.0 mi South 10.4 mph - N/A   Clear
10:53 PM 77.0 °F - 59.0 °F 54% 29.94 in 10.0 mi South 8.1 mph - N/A   Clear
11:53 PM 75.0 °F - 59.0 °F 57% 29.95 in 10.0 mi South 9.2 mph - N/A   Clear